Location: Bishop�s Knoyle
(51.0728°N, 2.1714°W)
Time: 04:29:30
(UTC+00:00)

Sich 1 Rocket - Pass Details

Date: 18 September 2020
Orbit: 617 x 652 km, 82.5° (Epoch: 20 October)

Event Time Altitude Azimuth Distance (km) Brightness Sun altitude
Rises 19:21:06 0° 182° (S) 2,918 6.9 -11.0°
Reaches altitude 10° 19:23:19 10° 180° (S) 2,020 6.0 -11.4°
Maximum altitude 19:27:47 71° 97° (E) 682 3.6 -12.0°
Drops below altitude 10° 19:32:20 10° 14° (NNE) 2,058 6.3 -12.7°
Sets 19:34:36 0° 13° (NNE) 2,978 7.2 -13.1°
